Regional Weather Roundup
Issued by NWS

Home | Current Version | Previous Version | Graphics & Text | Print | Product List | Glossary On
Versions: 1 2 3 4 5 6 7 8 9 10 11 12 13 14 15 16 17 18 19 20 21 22 23 24 25 26 27 28 29 30 31 32 33 34 35 36 37 38 39 40 41 42 43 44 45 46 47 48 49 50
000
ASUS43 KFSD 250202
RWRSD

WEATHER ROUNDUP FOR SOUTH DAKOTA
NATIONAL WEATHER SERVICE SIOUX FALLS SD
900 PM CDT FRI APR 24 2015

NOTE: "FAIR" INDICATES FEW OR NO CLOUDS BELOW 12,000 FEET WITH NO
SIGNIFICANT WEATHER AND/OR OBSTRUCTIONS TO VISIBILITY.


SDZ001>005-009-010-012>017-250300-
NORTHWEST AND NORTH CENTRAL SOUTH DAKOTA

CITY           SKY/WX    TMP DP  RH WIND       PRES   REMARKS
BUFFALO          N/A     58  34  40 E12       29.56R
FAITH            N/A     54  36  50 E9        29.60R
MOBRIDGE       CLEAR     60  45  57 E15       29.56R
$$

SDZ012>016-024>037-041>051-057-063-072>074-250300-
SOUTHWEST AND SOUTH CENTRAL SOUTH DAKOTA

CITY           SKY/WX    TMP DP  RH WIND       PRES   REMARKS
RAPID CTY ARPT CLOUDY    53  45  74 SE8       29.60R
PIERRE         PTCLDY    63  46  54 NE17      29.51R
CUSTER         MOCLDY    47  40  76 N5        29.65R
ELLSWORTH AFB  MOCLDY    55  45  69 SE8       29.59R
PHILIP         CLOUDY    62  45  53 SW10      29.56R
PINE RIDGE     CLOUDY    53  45  74 NE14      29.58R
WINNER         FAIR      69  44  40 E14G21    29.48R
$$

SDZ004>011-016>023-039-040-250300-
NORTHEAST SOUTH DAKOTA

CITY           SKY/WX    TMP DP  RH WIND       PRES   REMARKS
ABERDEEN       MOCLDY    51  44  77 NE10      29.61R
WATERTOWN      CLOUDY    49  43  80 SE16G25   29.63R
BROOKINGS      CLOUDY    52  46  82 E21G26    29.61S
SISSETON         N/A     48  43  82 SE21      29.67R
$$

SDZ017-020-022-023-036>040-048>070-250300-
SOUTHEAST SOUTH DAKOTA

CITY           SKY/WX    TMP DP  RH WIND       PRES   REMARKS
SIOUX FALLS    CLOUDY    57  48  72 E17G28    29.58R
HURON          CLOUDY    58  48  69 E23G31    29.54R THUNDER
MITCHELL       LGT RAIN  62  51  67 NE24G30   29.51R
YANKTON        MOCLDY    64  54  68 SE12      29.51R
$$

ABBREVIATIONS USED IN REMARKS
   TC - TEMPERATURE IN CELSIUS
  WCI - WIND CHILL INDEX
   HX - HEAT INDEX
  VSB - VISIBILITY




USA.gov is the U.S. government's official web portal to all federal, state and local government web resources and services.